Regional Weather Roundup
Issued by NWS

Home | Current Version | Previous Version | Text Only | Print | Product List | Glossary Off
Versions: 1 2 3 4 5 6 7 8 9 10 11 12 13 14 15 16 17 18 19 20 21 22 23 24 25 26 27 28 29 30 31 32 33 34 35 36 37 38 39 40 41 42 43 44 45 46 47 48 49 50

000
ASUS43 KMKX 022221
RWRWI

WISCONSIN REGIONAL WEATHER ROUNDUP
NATIONAL WEATHER SERVICE MILWAUKEE/SULLIVAN WI
500 PM CDT WED SEP 02 2015

NOTE: "FAIR" INDICATES FEW OR NO CLOUDS BELOW 12,000 FEET WITH NO
SIGNIFICANT WEATHER AND/OR OBSTRUCTIONS TO VISIBILITY.

WIZ001-002-006>008-014>016-023>028-022300-
NORTHWEST WISCONSIN

CITY           SKY/WX    TMP DP  RH WIND       PRES   REMARKS
SUPERIOR ARPT  SUNNY     68  63  83 NE12      29.94S
ASHLAND        PTSUNNY   76  69  79 NE6       29.95S
HAYWARD        CLOUDY    73  65  75 VRB3      29.95S
SIREN          CLOUDY    73  66  76 E5        29.93S
CUMBERLAND     PTSUNNY   70  64  83 S7        29.93F
RICE LAKE      PTSUNNY   70  67  89 SE6       29.94F
CHETEK         CLOUDY   N/A N/A N/A MISG      29.93S
LADYSMITH      CLOUDY    70  67  90 CALM      29.95S
EAU CLAIRE     PTSUNNY   73  68  84 E3        29.90F
MENOMONIE      PTSUNNY   74  69  85 E6        29.90F
NEW RICHMOND   CLOUDY    70  68  92 E9        29.91F
OSCEOLA        CLOUDY    70  70 100 E7        29.94S
$$

WIZ003>005-009-010-017-018-022300-
NORTH CENTRAL WISCONSIN

CITY           SKY/WX    TMP DP  RH WIND       PRES   REMARKS
MANITOWISH WTR CLOUDY    69  68  97 CALM      29.97R
ARBOR VITAE    CLOUDY    69  68  94 E5        29.96S
WOODRUFF       CLOUDY    69  68  94 E5        29.96S
RHINELANDER    CLOUDY    71  67  87 E7        29.96S
EAGLE RIVER    CLOUDY    69  68  97 NE3       29.97R
LAND O LAKES   LGT RAIN  69  67  94 E5        29.98F
PHILLIPS       PTSUNNY   68  67  97 NE5       29.94F
TOMAHAWK       CLOUDY    69  67  92 CALM      29.95F
MEDFORD        DRIZZLE   67  66  97 E7        29.93F
MERRILL        LGT RAIN  70  69  95 CALM      29.93S
$$

WIZ029-030-035-036-043>047-022300-
CENTRAL WISCONSIN

CITY           SKY/WX    TMP DP  RH WIND       PRES   REMARKS
WAUSAU         LGT RAIN  72  68  87 E15       29.87F
MOSINEE        PTSUNNY   73  72  94 S9G17     29.90F
MARSHFIELD     PTSUNNY   81  68  64 SE3       29.92F HX  84
STEVENS POINT  MOSUNNY   82  66  57 SW8       29.92F HX  84
WAUPACA        MOSUNNY   88  67  49 S8        29.92F HX  91
WAUTOMA        SUNNY     88  65  46 SW9       29.93S HX  90
WISC RAPIDS    MOSUNNY   86  65  49 S12       29.92F HX  88
CAMP DOUGLAS   PTSUNNY   82  70  65 SW8       29.92S HX  86
$$

WIZ011>013-019>022-031-037>040-048>050-022300-
NORTHEAST WISCONSIN

CITY           SKY/WX    TMP DP  RH WIND       PRES   REMARKS
ANTIGO         CLOUDY    68  66  93 E9        29.93F
SHAWANO        PTSUNNY   79  67  65 E6        29.92F HX  81
OCONTO         CLOUDY    71  71 100 E7        29.93S
STURGEON BAY   CLOUDY    70  66  88 NE8       29.97F
GREEN BAY      PTSUNNY   85  70  60 S7        29.92F HX  89
MANITOWOC      PTSUNNY   79  70  74 MISG      29.94S HX  82
APPLETON       MOSUNNY   84  63  48 S13       29.92S HX  85
CLINTONVILLE   MOSUNNY   81  66  61 E9        29.91F HX  83
OSHKOSH        MOSUNNY   84  67  56 SW12      29.93S HX  86
$$

WIZ032>034-041-042-053>061-022300-
SOUTHWEST WISCONSIN

CITY           SKY/WX    TMP DP  RH WIND       PRES   REMARKS
LA CROSSE      CLOUDY    83  68  60 S8        29.89F HX  86
SPARTA         CLOUDY    81  65  58 S3        29.93S HX  83
VIROQUA          N/A     80  68  65 S6        29.95R HX  83
BOSCOBEL       CLOUDY    87  67  51 S9        29.91F HX  90
PRAIRIE DU CHI CLOUDY    83  66  57 S5        29.91F HX  85
PLATTEVILLE    MOSUNNY   81  72  73 S10       29.95F HX  85
$$

WIZ056-057-062-063-064-067-068-022300-
SOUTH CENTRAL WISCONSIN

CITY           SKY/WX    TMP DP  RH WIND       PRES   REMARKS
REEDSBURG      SUNNY     85  67  54 SW10      29.93S HX  88
BARABOO/DELLS  MOSUNNY   85  63  47 SW12      29.94R HX  86
LONE ROCK      SUNNY     85  66  53 SW12      29.93F HX  87
MINERAL POINT  SUNNY     84  70  61 S8        29.95F HX  88
MADISON        PTSUNNY   84  69  60 VRB7      29.94F HX  88
MIDDLETON      PTSUNNY   86  67  52 SW10G16   29.95F HX  89
WATERTOWN      PTSUNNY   83  69  62 SW10      29.95F HX  87
MONROE         PTSUNNY   84  68  58 SW14G20   29.96F HX  87
JANESVILLE     MOSUNNY   84  66  54 SW12G17   29.95F HX  86
$$

WIZ051-052-058>065-066-070>072-022300-
SOUTHEAST WISCONSIN

CITY           SKY/WX    TMP DP  RH WIND       PRES   REMARKS
MILWAUKEE      PTSUNNY   86  67  52 SW13      29.94F HX  89
WAUKESHA       SUNNY     82  68  61 SW7       29.97F HX  85
MILWAUKEE/TIMM MOSUNNY   84  64  51 SW9       29.95F HX  86
RACINE         PTSUNNY   83  67  58 S6        29.96F HX  85
BURLINGTON     CLOUDY    82  70  66 CALM      29.95F HX  86
KENOSHA        PTSUNNY   86  70  58 SW8       29.95F HX  90
FOND DU LAC    MOSUNNY   85  68  56 SW8       29.94S HX  88
SHEBOYGAN      PTSUNNY   84  70  62 W12       29.95R HX  88
WEST BEND      CLOUDY    84  64  51 SW6       29.95S HX  86
JUNEAU         MOSUNNY   83  69  61 SW9       29.96F HX  87
$$

LSZ147-162-022300-
LAKE SUPERIOR

STATION/POSITION TIME  TEMP    WIND        PRES    WAVE
                       AIR SEA DIR/SP/G            HT/PER
                 (UTC) (F)     (DEG/KT/KT) (MB)    (FT/S)
W MID LAKE BUOY  2150   58 56   30/  6/  8 1014.3S   0
DEVILS ISLAND    2200   62      70/  7/  7 1014.3F
PORT WING        2140   66      30/ 12/ 14 1013.9F
SAXON HARBOR     2100   66     360/ 12/ 15 1013.5R
$$

LMZ867-665-643>646-022300-
LAKE MICHIGAN

STATION/POSITION TIME  TEMP    WIND        PRES    WAVE
                       AIR SEA DIR/SP/G            HT/PER
                 (UTC) (F)     (DEG/KT/KT) (MB)    (FT/S)
CHAMBERS ISLAND  2100   68      40/  7/ 11 1013.9S
S GREEN BAY BUOY 2100   75 69  150/ 10/ 16 1014.9
N MID LAKE BUOY  2150   68 66  160/  4/  6 1013.5F   1/ 2
NORTHPORT PIER   2100   68     140/  5/  6 1014.2S
SISTER BAY       2119          110/  9/ 12   N/A
ALGOMA LAKESHORE 2114           80/  7/  8   N/A
KEWAUNEE LAKESHO 2200   63      30/  8/ 12 1012.9R
SHEBOYGAN LAKESH 2200   74     180/ 11/ 12 1013.7R
PORT WASHINGTON  2100   67     170/  3/  5 1014.6F
ATWATER BUOY     2200   60     150/  8/ 10 1015.2F
MILWAUKEE LAKESH 2210   69     140/  6/  6   N/A
S MID LAKE BUOY  2150   74 72  170/  8/  8 1013.7F   1
KENOSHA   LAKESH 2200   69     170/ 12/ 15 1013.5F
$$

TC  - TEMPERATURE IN CELSIUS
VSB - VISIBILITY IN STATUTE MILES
WCI - WIND CHILL INDEX
HX  - HEAT INDEX




USA.gov is the U.S. government's official web portal to all federal, state and local government web resources and services.